Tracking 21076 objects as of 7-Aug-2020
HD Live streaming from Space Station
objects crossing your sky now

ARIANE 1 DEB

Track ARIANE 1 DEB now!
10-day predictions


NORAD ID: 16616
Int'l Code: 1986-019D
Perigee: 795.2 km
Apogee: 808.3 km
Inclination: 98.5 °
Period: 100.8 minutes
Semi major axis: 7172 km
RCS: 0.4804 m2 (medium)
Launch date: February 22, 1986
Source: France (FR)
Launch site: FRENCH GUIANA (FRGUI)

Note: This is SATELLITE DEBRIS
aabbcc
Your satellite tracking list
Your tracking list is empty




NASA's NSSDC Master Catalog

Two Line Element Set (TLE):
1 16616U 86019D   20219.66595806  .00000027  00000-0  27484-4 0  9991
2 16616  98.4533 276.5400 0009119  87.2261  76.8007 14.29143549792642
Source of the keplerian elements: AFSPC